When you browse on this site, cookies collect data to enhance your experience and personalize the content and advertising you see.
Visit our Privacy Policy to learn more. By continuing to use the site, you agree to this use of cookies and data.
  • In Austria
  • List of Countries
  • For 7 days
  • Water Temperature
  • Weather Map
  • News
  • Weather Widgets
  • user-avatar
    Login

    Hourly Weather Vinh

    Today, 22 January, Wednesday

    Time Temperature Precipitation Wind Pressure Humidity
    00:00 +19°C° 0 mm 0 mps 751 mmHg 95%
    01:00 +19°C° 0 mm 0 mps 751 mmHg 96%
    02:00 +19°C° 0 mm 0 mps 750 mmHg 96%
    03:00 +19°C° 0 mm 0 mps 750 mmHg 96%
    04:00 +19°C° 0 mm 0 mps 749 mmHg 96%
    05:00 +19°C° 0 mm 0 mps 750 mmHg 96%
    06:00 +19°C° 0 mm 0 mps 750 mmHg 96%
    07:00 +20°C° 0 mm 0 mps 750 mmHg 96%
    08:00 +24°C° 0 mm 1 mps 751 mmHg 87%
    09:00 +26°C° 0 mm 1 mps 751 mmHg 79%
    10:00 +27°C° 0 mm 1 mps 752 mmHg 70%
    11:00 +28°C° 0 mm 1 mps 751 mmHg 69%
    12:00 +29°C° 0 mm 2 mps 750 mmHg 68%
    13:00 +29°C° 0 mm 2 mps 749 mmHg 67%
    14:00 +29°C° 0 mm 2 mps 748 mmHg 71%
    15:00 +28°C° 0 mm 2 mps 748 mmHg 75%
    16:00 +27°C° 0 mm 2 mps 747 mmHg 79%
    17:00 +26°C° 0 mm 2 mps 747 mmHg 84%
    18:00 +25°C° 0 mm 1 mps 748 mmHg 88%
    19:00 +22°C° 0 mm 0 mps 748 mmHg 93%
    20:00 +22°C° 0 mm 0 mps 749 mmHg 93%
    21:00 +21°C° 0 mm 0 mps 749 mmHg 92%
    22:00 +21°C° 0 mm 0 mps 749 mmHg 91%
    23:00 +21°C° 0 mm 0 mps 749 mmHg 91%

    Tomorrow, 23 January, Thursday

    Time Temperature Precipitation Wind Pressure Humidity
    00:00 +21°C° 0 mm 0 mps 748 mmHg 91%
    01:00 +20°C° 0 mm 0 mps 748 mmHg 91%
    02:00 +20°C° 0 mm 0 mps 748 mmHg 91%
    03:00 +20°C° 0 mm 0 mps 748 mmHg 91%
    04:00 +20°C° 0 mm 0 mps 747 mmHg 91%
    05:00 +20°C° 0 mm 0 mps 748 mmHg 90%
    06:00 +20°C° 0 mm 0 mps 748 mmHg 90%
    07:00 +20°C° 0 mm 0 mps 748 mmHg 90%
    08:00 +22°C° 0 mm 0 mps 749 mmHg 84%
    09:00 +26°C° 0 mm 1 mps 749 mmHg 77%
    10:00 +28°C° 0 mm 1 mps 749 mmHg 71%
    11:00 +28°C° 0 mm 1 mps 748 mmHg 69%
    12:00 +29°C° 0 mm 1 mps 748 mmHg 68%
    13:00 +30°C° 0 mm 2 mps 747 mmHg 66%
    14:00 +29°C° 0.1 mm 2 mps 746 mmHg 71%
    15:00 +28°C° 0.1 mm 2 mps 746 mmHg 76%
    16:00 +27°C° 0.1 mm 2 mps 745 mmHg 80%
    17:00 +26°C° 0 mm 2 mps 746 mmHg 84%
    18:00 +25°C° 0 mm 1 mps 746 mmHg 89%
    19:00 +24°C° 0 mm 1 mps 747 mmHg 93%
    20:00 +22°C° 0 mm 0 mps 747 mmHg 93%
    21:00 +22°C° 0 mm 0 mps 748 mmHg 93%
    22:00 +21°C° 0 mm 0 mps 748 mmHg 94%
    23:00 +21°C° 0 mm 0 mps 748 mmHg 94%

    Day after tomorrow, 24 January, Friday

    Time Temperature Precipitation Wind Pressure Humidity
    00:00 +21°C° 0 mm 0 mps 748 mmHg 94%
    01:00 +21°C° 0 mm 0 mps 748 mmHg 94%
    02:00 +21°C° 0 mm 0 mps 747 mmHg 94%
    03:00 +21°C° 0 mm 0 mps 747 mmHg 94%
    04:00 +20°C° 0 mm 0 mps 747 mmHg 94%
    05:00 +21°C° 0 mm 0 mps 747 mmHg 94%
    06:00 +21°C° 0 mm 0 mps 748 mmHg 93%
    07:00 +21°C° 0 mm 0 mps 748 mmHg 93%
    08:00 +22°C° 0 mm 0 mps 749 mmHg 88%
    09:00 +23°C° 0 mm 0 mps 749 mmHg 84%
    10:00 +24°C° 0 mm 0 mps 749 mmHg 80%
    11:00 +27°C° 0 mm 1 mps 748 mmHg 77%
    12:00 +28°C° 0 mm 1 mps 748 mmHg 74%
    13:00 +28°C° 0 mm 1 mps 747 mmHg 71%
    14:00 +28°C° 0.1 mm 1 mps 747 mmHg 75%
    15:00 +27°C° 0.1 mm 2 mps 746 mmHg 79%
    16:00 +27°C° 0.1 mm 2 mps 745 mmHg 82%
    17:00 +26°C° 0 mm 1 mps 746 mmHg 86%
    18:00 +25°C° 0 mm 1 mps 746 mmHg 90%
    19:00 +22°C° 0 mm 0 mps 746 mmHg 94%
    20:00 +24°C° 0 mm 1 mps 747 mmHg 94%
    21:00 +24°C° 0 mm 1 mps 747 mmHg 94%
    22:00 +24°C° 0 mm 1 mps 747 mmHg 94%
    23:00 +24°C° 0.1 mm 1 mps 747 mmHg 94%

    25 January, Saturday

    Time Temperature Precipitation Wind Pressure Humidity
    00:00 +22°C° 0.1 mm 0 mps 747 mmHg 94%
    01:00 +21°C° 0.1 mm 0 mps 747 mmHg 95%
    02:00 +21°C° 0.2 mm 0 mps 746 mmHg 95%
    03:00 +21°C° 0.2 mm 0 mps 746 mmHg 95%
    04:00 +21°C° 0.2 mm 0 mps 746 mmHg 95%
    05:00 +21°C° 0 mm 0 mps 746 mmHg 95%
    06:00 +21°C° 0 mm 0 mps 747 mmHg 95%
    07:00 +21°C° 0 mm 0 mps 747 mmHg 94%
    08:00 +24°C° 0.1 mm 1 mps 748 mmHg 90%
    09:00 +25°C° 0.1 mm 1 mps 748 mmHg 85%
    10:00 +26°C° 0.1 mm 1 mps 748 mmHg 80%
    11:00 +27°C° 0.6 mm 1 mps 748 mmHg 78%
    12:00 +28°C° 0.6 mm 1 mps 747 mmHg 75%
    13:00 +28°C° 0.6 mm 1 mps 746 mmHg 73%
    14:00 +28°C° 1.2 mm 2 mps 745 mmHg 76%
    15:00 +28°C° 1.2 mm 2 mps 745 mmHg 79%
    16:00 +27°C° 1.2 mm 2 mps 744 mmHg 82%
    17:00 +26°C° 0.8 mm 1 mps 745 mmHg 86%
    18:00 +25°C° 0.8 mm 1 mps 745 mmHg 91%
    19:00 +23°C° 0.8 mm 1 mps 745 mmHg 95%
    20:00 +21°C° 0.6 mm 0 mps 745 mmHg 95%
    21:00 +21°C° 0.6 mm 0 mps 746 mmHg 95%
    22:00 +21°C° 0.6 mm 0 mps 746 mmHg 95%
    23:00 +21°C° 0.8 mm 0 mps 746 mmHg 95%

    26 January, Sunday

    Time Temperature Precipitation Wind Pressure Humidity
    00:00 +21°C° 0.8 mm 0 mps 746 mmHg 96%
    01:00 +23°C° 0.8 mm 1 mps 746 mmHg 97%
    02:00 +23°C° 1.3 mm 1 mps 746 mmHg 97%
    03:00 +23°C° 1.3 mm 1 mps 746 mmHg 97%
    04:00 +23°C° 1.3 mm 2 mps 746 mmHg 98%
    05:00 +21°C° 1.4 mm 2 mps 746 mmHg 97%
    06:00 +20°C° 1.4 mm 2 mps 747 mmHg 96%
    07:00 +19°C° 1.4 mm 3 mps 747 mmHg 96%
    08:00 +19°C° 0.2 mm 2 mps 748 mmHg 95%
    09:00 +18°C° 0.2 mm 2 mps 748 mmHg 94%
    10:00 +18°C° 0.2 mm 2 mps 749 mmHg 93%
    11:00 +18°C° 0.1 mm 2 mps 748 mmHg 92%
    12:00 +17°C° 0.1 mm 2 mps 748 mmHg 92%
    13:00 +17°C° 0.1 mm 2 mps 748 mmHg 91%
    14:00 +17°C° 0 mm 2 mps 748 mmHg 91%
    15:00 +17°C° 0 mm 2 mps 747 mmHg 91%
    16:00 +17°C° 0 mm 2 mps 747 mmHg 91%
    17:00 +16°C° 0.5 mm 2 mps 748 mmHg 92%
    18:00 +16°C° 0.5 mm 2 mps 748 mmHg 94%
    19:00 +16°C° 0.5 mm 1 mps 748 mmHg 95%
    20:00 +16°C° 0.1 mm 1 mps 749 mmHg 94%
    21:00 +16°C° 0.1 mm 1 mps 749 mmHg 94%
    22:00 +16°C° 0.1 mm 1 mps 749 mmHg 94%
    23:00 +16°C° 0.1 mm 1 mps 749 mmHg 94%

    27 January, Monday

    Time Temperature Precipitation Wind Pressure Humidity
    00:00 +16°C° 0.1 mm 1 mps 749 mmHg 94%
    01:00 +16°C° 0.1 mm 1 mps 748 mmHg 94%
    02:00 +16°C° 0.2 mm 1 mps 748 mmHg 94%
    03:00 +16°C° 0.2 mm 1 mps 748 mmHg 95%
    04:00 +16°C° 0.2 mm 1 mps 747 mmHg 95%
    05:00 +16°C° 0.1 mm 1 mps 748 mmHg 95%
    06:00 +16°C° 0.1 mm 1 mps 748 mmHg 95%
    07:00 +16°C° 0.1 mm 1 mps 748 mmHg 95%
    08:00 +16°C° 0.1 mm 1 mps 749 mmHg 94%
    09:00 +16°C° 0.1 mm 1 mps 749 mmHg 93%
    10:00 +18°C° 0.1 mm 1 mps 749 mmHg 92%
    11:00 +18°C° 0.1 mm 1 mps 748 mmHg 92%
    12:00 +18°C° 0.1 mm 1 mps 748 mmHg 91%
    13:00 +19°C° 0.1 mm 1 mps 747 mmHg 91%
    14:00 +19°C° 0.1 mm 1 mps 747 mmHg 92%
    15:00 +18°C° 0.1 mm 1 mps 747 mmHg 93%
    16:00 +18°C° 0.1 mm 1 mps 746 mmHg 94%
    17:00 +18°C° 0.3 mm 1 mps 747 mmHg 95%
    18:00 +18°C° 0.3 mm 1 mps 747 mmHg 95%
    19:00 +18°C° 0.3 mm 1 mps 747 mmHg 96%
    20:00 +18°C° 0.4 mm 1 mps 748 mmHg 96%
    21:00 +18°C° 0.4 mm 1 mps 748 mmHg 97%
    22:00 +18°C° 0.4 mm 1 mps 749 mmHg 97%
    23:00 +18°C° 0.2 mm 1 mps 748 mmHg 97%
    Show more